Weather History for Zacatecas Airport, Mexico

Change the Weather History Date:

Wednesday, April 17, 2013

  Actual Average Record
Temperature  
Mean Temperature 65 °F -  
Max Temperature 86 °F 79 °F 87 °F (2001)
Min Temperature 44 °F 47 °F 42 °F (2009)
Growing Degree Days 15 (Base 50)    
Moisture  
Dew Point 20 °F    
Average Humidity 18    
Maximum Humidity 30    
Minimum Humidity 11    
Precipitation  
Precipitation 0.00 in - - ()
Sea Level Pressure  
Sea Level Pressure 30.21 in    
Wind  
Wind Speed 11 mph ()    
Max Wind Speed 23 mph    
Max Gust Speed 29 mph    
Visibility 10.0 miles    
Events      
Averages and records for this station are not official NWS values.
T = Trace of Precipitation, MM = Missing Value Source: Averaged Metar Reports

Daily Weather History Graph

Daily Weather History Graph

Search for Another Location

Airport:

Trip Planner

Search our weather history database for the weather conditions in past years. The results will help you decide how hot, cold, wet, or windy it might be!

Date:

Astronomy

Apr. 17, 2013 Rise Set
Actual Time 7:28 AM CDT 8:12 PM CDT
Civil Twilight 7:05 AM CDT 8:35 PM CDT
Nautical Twilight 6:38 AM CDT 9:02 PM CDT
Astronomical Twilight 6:10 AM CDT 9:30 PM CDT
Moon 12:57 PM CDT (4/17) 1:37 AM CDT (4/17)
Length of Visible Light 13h 30m
Length of Day
12h 44m
Waxing Crescent, 42% of the Moon is Illuminated
Apr 17
Waxing Crescent
Apr 18
First Quarter
Apr 25
Full
May 2
Last Quarter
May 9
New

Hourly Weather History & Observations

Time (CDT) Temp. Windchill Dew Point Humidity Pressure Visibility Wind Dir Wind Speed Gust Speed Precip Events Conditions
12:42 AM 57.2 °F - 12.2 °F 17% 30.25 in 10.0 mi SSW 9.2 mph - N/A   Clear
1:42 AM 51.8 °F - 10.4 °F 19% 30.25 in 10.0 mi South 6.9 mph - N/A   Clear
2:42 AM 53.6 °F - 14.0 °F 21% 30.22 in 10.0 mi SSE 10.4 mph - N/A   Clear
3:52 AM 48.2 °F - 14.0 °F 25% 30.22 in 10.0 mi SSE 4.6 mph - N/A   Clear
5:03 AM 51.8 °F - 17.6 °F 26% 30.22 in 10.0 mi SSE 10.4 mph - N/A   Clear
5:44 AM 46.4 °F 42.4 °F 15.8 °F 29% 30.22 in 10.0 mi SSW 8.1 mph - N/A   Clear
6:48 AM 44.6 °F 40.2 °F 14.0 °F 29% 30.23 in 10.0 mi SSE 8.1 mph - N/A   Clear
7:48 AM 51.8 °F - 21.2 °F 30% 30.24 in 10.0 mi South 11.5 mph - N/A   Mostly Cloudy
8:42 AM 57.2 °F - 24.8 °F 29% 30.25 in 10.0 mi South 9.2 mph - N/A   Scattered Clouds
9:40 AM 64.4 °F - 26.6 °F 24% 30.26 in 10.0 mi South 11.5 mph - N/A   Mostly Cloudy
10:40 AM 75.2 °F - 19.4 °F 12% 30.26 in 10.0 mi West 16.1 mph - N/A   Mostly Cloudy
11:40 AM 77.0 °F - 19.4 °F 12% 30.25 in 10.0 mi West 23.0 mph - N/A   Mostly Cloudy
12:40 PM 80.6 °F - 21.2 °F 11% 30.24 in 10.0 mi West 23.0 mph - N/A   Mostly Cloudy
1:42 PM 82.4 °F - 23.0 °F 11% 30.21 in 10.0 mi WSW 23.0 mph - N/A   Mostly Cloudy
2:41 PM 84.2 °F - 24.8 °F 11% 30.18 in 10.0 mi WSW 15.0 mph 26.5 mph N/A   Mostly Cloudy
3:41 PM 86.0 °F - 26.6 °F 12% 30.15 in 10.0 mi West 20.7 mph - N/A   Mostly Cloudy
4:42 PM 86.0 °F - 24.8 °F 11% 30.13 in 10.0 mi West 17.3 mph 28.8 mph N/A   Mostly Cloudy
5:41 PM 84.2 °F - 24.8 °F 11% 30.12 in 10.0 mi WSW 23.0 mph - N/A   Mostly Cloudy
6:41 PM 82.4 °F - 23.0 °F 11% 30.12 in 10.0 mi WNW 23.0 mph - N/A   Scattered Clouds
8:41 PM 71.6 °F - 17.6 °F 13% 30.15 in 10.0 mi WSW 13.8 mph - N/A   Partly Cloudy
9:50 PM 68.0 °F - 21.2 °F 17% 30.19 in 10.0 mi West 15.0 mph - N/A   Partly Cloudy
10:50 PM 66.2 °F - 24.8 °F 21% 30.21 in 10.0 mi West 16.1 mph - N/A   Partly Cloudy
11:51 PM 60.8 °F - 23.0 °F 23% 30.23 in 10.0 mi SSW 8.1 mph - N/A   Clear